<?xml version="1.0"?>
<gpx xmlns="http://www.topografix.com/GPX/1/1" xmlns:xsi="http://www.w3.org/2001/XMLSchema-instance" version="1.1" creator="GPX RubyGem 1.0.0 -- http://dougfales.github.io/gpx/" xsi:schemaLocation="http://www.topografix.com/GPX/1/1 http://www.topografix.com/GPX/1/1/gpx.xsd">
  <metadata>
    <name/>
    <time>2026-05-08T12:10:17+00:00</time>
    <bound minlat="90.0" minlon="180.0" maxlat="-90.0" maxlon="-180.0"/>
  </metadata>
  <trk>
    <name/>
    <trkseg>
      <trkpt lat="42.239674" lon="2.713068">
        <time>1970-01-01T00:00:00+00:00</time>
        <ele>360.0</ele>
      </trkpt>
      <trkpt lat="42.239833" lon="2.713134">
        <time>1970-01-01T00:00:00+00:00</time>
        <ele>361.0</ele>
      </trkpt>
      <trkpt lat="42.239926" lon="2.713134">
        <time>1970-01-01T00:00:00+00:00</time>
        <ele>363.0</ele>
      </trkpt>
      <trkpt lat="42.240044" lon="2.713214">
        <time>1970-01-01T00:00:00+00:00</time>
        <ele>365.0</ele>
      </trkpt>
      <trkpt lat="42.24019" lon="2.713496">
        <time>1970-01-01T00:00:00+00:00</time>
        <ele>366.0</ele>
      </trkpt>
      <trkpt lat="42.240288" lon="2.713641">
        <time>1970-01-01T00:00:00+00:00</time>
        <ele>369.0</ele>
      </trkpt>
      <trkpt lat="42.240397" lon="2.713764">
        <time>1970-01-01T00:00:00+00:00</time>
        <ele>371.0</ele>
      </trkpt>
      <trkpt lat="42.240516" lon="2.713821">
        <time>1970-01-01T00:00:00+00:00</time>
        <ele>373.0</ele>
      </trkpt>
      <trkpt lat="42.240643" lon="2.713815">
        <time>1970-01-01T00:00:00+00:00</time>
        <ele>375.0</ele>
      </trkpt>
      <trkpt lat="42.241038" lon="2.713968">
        <time>1970-01-01T00:00:00+00:00</time>
        <ele>378.0</ele>
      </trkpt>
      <trkpt lat="42.241234" lon="2.714076">
        <time>1970-01-01T00:00:00+00:00</time>
        <ele>380.0</ele>
      </trkpt>
      <trkpt lat="42.241405" lon="2.714145">
        <time>1970-01-01T00:00:00+00:00</time>
        <ele>381.0</ele>
      </trkpt>
      <trkpt lat="42.241483" lon="2.714213">
        <time>1970-01-01T00:00:00+00:00</time>
        <ele>383.0</ele>
      </trkpt>
      <trkpt lat="42.241615" lon="2.714499">
        <time>1970-01-01T00:00:00+00:00</time>
        <ele>387.0</ele>
      </trkpt>
      <trkpt lat="42.241667" lon="2.714775">
        <time>1970-01-01T00:00:00+00:00</time>
        <ele>389.0</ele>
      </trkpt>
      <trkpt lat="42.241751" lon="2.714925">
        <time>1970-01-01T00:00:00+00:00</time>
        <ele>390.0</ele>
      </trkpt>
      <trkpt lat="42.241925" lon="2.715061">
        <time>1970-01-01T00:00:00+00:00</time>
        <ele>392.0</ele>
      </trkpt>
      <trkpt lat="42.242184" lon="2.715178">
        <time>1970-01-01T00:00:00+00:00</time>
        <ele>398.0</ele>
      </trkpt>
      <trkpt lat="42.242294" lon="2.715256">
        <time>1970-01-01T00:00:00+00:00</time>
        <ele>401.0</ele>
      </trkpt>
      <trkpt lat="42.242397" lon="2.715391">
        <time>1970-01-01T00:00:00+00:00</time>
        <ele>405.0</ele>
      </trkpt>
      <trkpt lat="42.242644" lon="2.715323">
        <time>1970-01-01T00:00:00+00:00</time>
        <ele>409.0</ele>
      </trkpt>
      <trkpt lat="42.242873" lon="2.715329">
        <time>1970-01-01T00:00:00+00:00</time>
        <ele>417.0</ele>
      </trkpt>
      <trkpt lat="42.243158" lon="2.71524">
        <time>1970-01-01T00:00:00+00:00</time>
        <ele>422.0</ele>
      </trkpt>
      <trkpt lat="42.243264" lon="2.715238">
        <time>1970-01-01T00:00:00+00:00</time>
        <ele>424.0</ele>
      </trkpt>
      <trkpt lat="42.243491" lon="2.715296">
        <time>1970-01-01T00:00:00+00:00</time>
        <ele>432.0</ele>
      </trkpt>
      <trkpt lat="42.243569" lon="2.715289">
        <time>1970-01-01T00:00:00+00:00</time>
        <ele>434.0</ele>
      </trkpt>
      <trkpt lat="42.243862" lon="2.715138">
        <time>1970-01-01T00:00:00+00:00</time>
        <ele>438.0</ele>
      </trkpt>
      <trkpt lat="42.244026" lon="2.715081">
        <time>1970-01-01T00:00:00+00:00</time>
        <ele>442.0</ele>
      </trkpt>
      <trkpt lat="42.244088" lon="2.715081">
        <time>1970-01-01T00:00:00+00:00</time>
        <ele>444.0</ele>
      </trkpt>
      <trkpt lat="42.244237" lon="2.71512">
        <time>1970-01-01T00:00:00+00:00</time>
        <ele>447.0</ele>
      </trkpt>
      <trkpt lat="42.24436" lon="2.715127">
        <time>1970-01-01T00:00:00+00:00</time>
        <ele>448.0</ele>
      </trkpt>
      <trkpt lat="42.244442" lon="2.71516">
        <time>1970-01-01T00:00:00+00:00</time>
        <ele>448.0</ele>
      </trkpt>
      <trkpt lat="42.244493" lon="2.715206">
        <time>1970-01-01T00:00:00+00:00</time>
        <ele>448.0</ele>
      </trkpt>
      <trkpt lat="42.244785" lon="2.715647">
        <time>1970-01-01T00:00:00+00:00</time>
        <ele>462.0</ele>
      </trkpt>
      <trkpt lat="42.244877" lon="2.715744">
        <time>1970-01-01T00:00:00+00:00</time>
        <ele>466.0</ele>
      </trkpt>
      <trkpt lat="42.244934" lon="2.71577">
        <time>1970-01-01T00:00:00+00:00</time>
        <ele>467.0</ele>
      </trkpt>
      <trkpt lat="42.245" lon="2.715907">
        <time>1970-01-01T00:00:00+00:00</time>
        <ele>473.0</ele>
      </trkpt>
      <trkpt lat="42.24502" lon="2.715675">
        <time>1970-01-01T00:00:00+00:00</time>
        <ele>463.0</ele>
      </trkpt>
      <trkpt lat="42.245007" lon="2.715567">
        <time>1970-01-01T00:00:00+00:00</time>
        <ele>459.0</ele>
      </trkpt>
      <trkpt lat="42.244909" lon="2.71539">
        <time>1970-01-01T00:00:00+00:00</time>
        <ele>452.0</ele>
      </trkpt>
      <trkpt lat="42.244968" lon="2.714905">
        <time>1970-01-01T00:00:00+00:00</time>
        <ele>460.0</ele>
      </trkpt>
      <trkpt lat="42.244911" lon="2.714621">
        <time>1970-01-01T00:00:00+00:00</time>
        <ele>466.0</ele>
      </trkpt>
      <trkpt lat="42.24484" lon="2.71447">
        <time>1970-01-01T00:00:00+00:00</time>
        <ele>469.0</ele>
      </trkpt>
      <trkpt lat="42.244755" lon="2.714374">
        <time>1970-01-01T00:00:00+00:00</time>
        <ele>470.0</ele>
      </trkpt>
      <trkpt lat="42.244794" lon="2.714187">
        <time>1970-01-01T00:00:00+00:00</time>
        <ele>485.0</ele>
      </trkpt>
      <trkpt lat="42.244654" lon="2.714121">
        <time>1970-01-01T00:00:00+00:00</time>
        <ele>486.0</ele>
      </trkpt>
      <trkpt lat="42.244667" lon="2.714037">
        <time>1970-01-01T00:00:00+00:00</time>
        <ele>492.0</ele>
      </trkpt>
      <trkpt lat="42.244722" lon="2.71388">
        <time>1970-01-01T00:00:00+00:00</time>
        <ele>502.0</ele>
      </trkpt>
      <trkpt lat="42.244655" lon="2.713775">
        <time>1970-01-01T00:00:00+00:00</time>
        <ele>506.0</ele>
      </trkpt>
      <trkpt lat="42.244685" lon="2.713621">
        <time>1970-01-01T00:00:00+00:00</time>
        <ele>512.0</ele>
      </trkpt>
      <trkpt lat="42.244644" lon="2.71341">
        <time>1970-01-01T00:00:00+00:00</time>
        <ele>521.0</ele>
      </trkpt>
      <trkpt lat="42.244705" lon="2.713291">
        <time>1970-01-01T00:00:00+00:00</time>
        <ele>527.0</ele>
      </trkpt>
      <trkpt lat="42.244874" lon="2.71305">
        <time>1970-01-01T00:00:00+00:00</time>
        <ele>536.0</ele>
      </trkpt>
      <trkpt lat="42.244706" lon="2.713024">
        <time>1970-01-01T00:00:00+00:00</time>
        <ele>537.0</ele>
      </trkpt>
      <trkpt lat="42.24461" lon="2.712936">
        <time>1970-01-01T00:00:00+00:00</time>
        <ele>538.0</ele>
      </trkpt>
      <trkpt lat="42.244498" lon="2.712902">
        <time>1970-01-01T00:00:00+00:00</time>
        <ele>536.0</ele>
      </trkpt>
      <trkpt lat="42.244422" lon="2.712921">
        <time>1970-01-01T00:00:00+00:00</time>
        <ele>532.0</ele>
      </trkpt>
      <trkpt lat="42.244422" lon="2.712921">
        <time>1970-01-01T00:00:00+00:00</time>
        <ele>532.0</ele>
      </trkpt>
      <trkpt lat="42.244498" lon="2.712902">
        <time>1970-01-01T00:00:00+00:00</time>
        <ele>536.0</ele>
      </trkpt>
      <trkpt lat="42.24461" lon="2.712936">
        <time>1970-01-01T00:00:00+00:00</time>
        <ele>538.0</ele>
      </trkpt>
      <trkpt lat="42.244706" lon="2.713024">
        <time>1970-01-01T00:00:00+00:00</time>
        <ele>537.0</ele>
      </trkpt>
      <trkpt lat="42.244874" lon="2.71305">
        <time>1970-01-01T00:00:00+00:00</time>
        <ele>536.0</ele>
      </trkpt>
      <trkpt lat="42.244705" lon="2.713291">
        <time>1970-01-01T00:00:00+00:00</time>
        <ele>527.0</ele>
      </trkpt>
      <trkpt lat="42.244644" lon="2.71341">
        <time>1970-01-01T00:00:00+00:00</time>
        <ele>521.0</ele>
      </trkpt>
      <trkpt lat="42.244685" lon="2.713621">
        <time>1970-01-01T00:00:00+00:00</time>
        <ele>512.0</ele>
      </trkpt>
      <trkpt lat="42.244655" lon="2.713775">
        <time>1970-01-01T00:00:00+00:00</time>
        <ele>506.0</ele>
      </trkpt>
      <trkpt lat="42.244722" lon="2.71388">
        <time>1970-01-01T00:00:00+00:00</time>
        <ele>502.0</ele>
      </trkpt>
      <trkpt lat="42.244667" lon="2.714037">
        <time>1970-01-01T00:00:00+00:00</time>
        <ele>492.0</ele>
      </trkpt>
      <trkpt lat="42.244654" lon="2.714121">
        <time>1970-01-01T00:00:00+00:00</time>
        <ele>486.0</ele>
      </trkpt>
      <trkpt lat="42.244794" lon="2.714187">
        <time>1970-01-01T00:00:00+00:00</time>
        <ele>485.0</ele>
      </trkpt>
      <trkpt lat="42.244755" lon="2.714374">
        <time>1970-01-01T00:00:00+00:00</time>
        <ele>470.0</ele>
      </trkpt>
      <trkpt lat="42.24484" lon="2.71447">
        <time>1970-01-01T00:00:00+00:00</time>
        <ele>469.0</ele>
      </trkpt>
      <trkpt lat="42.244911" lon="2.714621">
        <time>1970-01-01T00:00:00+00:00</time>
        <ele>466.0</ele>
      </trkpt>
      <trkpt lat="42.244968" lon="2.714905">
        <time>1970-01-01T00:00:00+00:00</time>
        <ele>460.0</ele>
      </trkpt>
      <trkpt lat="42.244909" lon="2.71539">
        <time>1970-01-01T00:00:00+00:00</time>
        <ele>452.0</ele>
      </trkpt>
      <trkpt lat="42.245007" lon="2.715567">
        <time>1970-01-01T00:00:00+00:00</time>
        <ele>459.0</ele>
      </trkpt>
      <trkpt lat="42.24502" lon="2.715675">
        <time>1970-01-01T00:00:00+00:00</time>
        <ele>463.0</ele>
      </trkpt>
      <trkpt lat="42.245" lon="2.715907">
        <time>1970-01-01T00:00:00+00:00</time>
        <ele>473.0</ele>
      </trkpt>
      <trkpt lat="42.244934" lon="2.71577">
        <time>1970-01-01T00:00:00+00:00</time>
        <ele>467.0</ele>
      </trkpt>
      <trkpt lat="42.244877" lon="2.715744">
        <time>1970-01-01T00:00:00+00:00</time>
        <ele>466.0</ele>
      </trkpt>
      <trkpt lat="42.244785" lon="2.715647">
        <time>1970-01-01T00:00:00+00:00</time>
        <ele>462.0</ele>
      </trkpt>
      <trkpt lat="42.244493" lon="2.715206">
        <time>1970-01-01T00:00:00+00:00</time>
        <ele>448.0</ele>
      </trkpt>
      <trkpt lat="42.244442" lon="2.71516">
        <time>1970-01-01T00:00:00+00:00</time>
        <ele>448.0</ele>
      </trkpt>
      <trkpt lat="42.24436" lon="2.715127">
        <time>1970-01-01T00:00:00+00:00</time>
        <ele>448.0</ele>
      </trkpt>
      <trkpt lat="42.244237" lon="2.71512">
        <time>1970-01-01T00:00:00+00:00</time>
        <ele>447.0</ele>
      </trkpt>
      <trkpt lat="42.244088" lon="2.715081">
        <time>1970-01-01T00:00:00+00:00</time>
        <ele>444.0</ele>
      </trkpt>
      <trkpt lat="42.244026" lon="2.715081">
        <time>1970-01-01T00:00:00+00:00</time>
        <ele>442.0</ele>
      </trkpt>
      <trkpt lat="42.243862" lon="2.715138">
        <time>1970-01-01T00:00:00+00:00</time>
        <ele>438.0</ele>
      </trkpt>
      <trkpt lat="42.243569" lon="2.715289">
        <time>1970-01-01T00:00:00+00:00</time>
        <ele>434.0</ele>
      </trkpt>
      <trkpt lat="42.243491" lon="2.715296">
        <time>1970-01-01T00:00:00+00:00</time>
        <ele>432.0</ele>
      </trkpt>
      <trkpt lat="42.243264" lon="2.715238">
        <time>1970-01-01T00:00:00+00:00</time>
        <ele>424.0</ele>
      </trkpt>
      <trkpt lat="42.243158" lon="2.71524">
        <time>1970-01-01T00:00:00+00:00</time>
        <ele>422.0</ele>
      </trkpt>
      <trkpt lat="42.242873" lon="2.715329">
        <time>1970-01-01T00:00:00+00:00</time>
        <ele>417.0</ele>
      </trkpt>
      <trkpt lat="42.242644" lon="2.715323">
        <time>1970-01-01T00:00:00+00:00</time>
        <ele>409.0</ele>
      </trkpt>
      <trkpt lat="42.242397" lon="2.715391">
        <time>1970-01-01T00:00:00+00:00</time>
        <ele>405.0</ele>
      </trkpt>
      <trkpt lat="42.242294" lon="2.715256">
        <time>1970-01-01T00:00:00+00:00</time>
        <ele>401.0</ele>
      </trkpt>
      <trkpt lat="42.242184" lon="2.715178">
        <time>1970-01-01T00:00:00+00:00</time>
        <ele>398.0</ele>
      </trkpt>
      <trkpt lat="42.241925" lon="2.715061">
        <time>1970-01-01T00:00:00+00:00</time>
        <ele>392.0</ele>
      </trkpt>
      <trkpt lat="42.241751" lon="2.714925">
        <time>1970-01-01T00:00:00+00:00</time>
        <ele>390.0</ele>
      </trkpt>
      <trkpt lat="42.241667" lon="2.714775">
        <time>1970-01-01T00:00:00+00:00</time>
        <ele>389.0</ele>
      </trkpt>
      <trkpt lat="42.241615" lon="2.714499">
        <time>1970-01-01T00:00:00+00:00</time>
        <ele>387.0</ele>
      </trkpt>
      <trkpt lat="42.241483" lon="2.714213">
        <time>1970-01-01T00:00:00+00:00</time>
        <ele>383.0</ele>
      </trkpt>
      <trkpt lat="42.241405" lon="2.714145">
        <time>1970-01-01T00:00:00+00:00</time>
        <ele>381.0</ele>
      </trkpt>
      <trkpt lat="42.241234" lon="2.714076">
        <time>1970-01-01T00:00:00+00:00</time>
        <ele>380.0</ele>
      </trkpt>
      <trkpt lat="42.241038" lon="2.713968">
        <time>1970-01-01T00:00:00+00:00</time>
        <ele>378.0</ele>
      </trkpt>
      <trkpt lat="42.240643" lon="2.713815">
        <time>1970-01-01T00:00:00+00:00</time>
        <ele>375.0</ele>
      </trkpt>
      <trkpt lat="42.240516" lon="2.713821">
        <time>1970-01-01T00:00:00+00:00</time>
        <ele>373.0</ele>
      </trkpt>
      <trkpt lat="42.240397" lon="2.713764">
        <time>1970-01-01T00:00:00+00:00</time>
        <ele>371.0</ele>
      </trkpt>
      <trkpt lat="42.240288" lon="2.713641">
        <time>1970-01-01T00:00:00+00:00</time>
        <ele>369.0</ele>
      </trkpt>
      <trkpt lat="42.24019" lon="2.713496">
        <time>1970-01-01T00:00:00+00:00</time>
        <ele>366.0</ele>
      </trkpt>
      <trkpt lat="42.240044" lon="2.713214">
        <time>1970-01-01T00:00:00+00:00</time>
        <ele>365.0</ele>
      </trkpt>
      <trkpt lat="42.239926" lon="2.713134">
        <time>1970-01-01T00:00:00+00:00</time>
        <ele>363.0</ele>
      </trkpt>
      <trkpt lat="42.239833" lon="2.713134">
        <time>1970-01-01T00:00:00+00:00</time>
        <ele>361.0</ele>
      </trkpt>
      <trkpt lat="42.239674" lon="2.713068">
        <time>1970-01-01T00:00:00+00:00</time>
        <ele>360.0</ele>
      </trkpt>
    </trkseg>
  </trk>
</gpx>
